Weather History for KFGN - January, 2014

Change the Weather History Date:

Sunday, January 26, 2014

  Actual Average Record
Temperature  
Mean Temperature -10 °F -  
Max Temperature -2 °F 10 °F 37 °F (2006)
Min Temperature -20 °F -1 °F -36 °F (1997)
Degree Days  
Heating Degree Days 75    
Moisture  
Dew Point -13 °F    
Average Humidity 76    
Maximum Humidity 85    
Minimum Humidity 63    
Precipitation  
Precipitation 0.00 in - - ()
Sea Level Pressure  
Sea Level Pressure 29.63 in    
Wind  
Wind Speed 10 mph (NNW)    
Max Wind Speed 32 mph    
Max Gust Speed 38 mph    
Visibility 3 miles    
Events Snow    
Averages and records for this station are not official NWS values.
T = Trace of Precipitation, MM = Missing Value Source: NWS Daily Summary

Daily Weather History Graph

Daily Weather History Graph

Search for Another Location

Airport or City:

Trip Planner

Search our weather history database for the weather conditions in past years. The results will help you decide how hot, cold, wet, or windy it might be!

Date:

Astronomy

Jan. 26, 2014 Rise Set
Actual Time 7:58 AM CST 5:06 PM CST
Civil Twilight 7:23 AM CST 5:41 PM CST
Nautical Twilight 6:45 AM CST 6:20 PM CST
Astronomical Twilight 6:07 AM CST 6:57 PM CST
Moon 3:39 AM CST (1/26) 12:53 PM CST (1/26)
Length of Visible Light 10h 17m
Length of Day
9h 07m
Waning Crescent, 23% of the Moon is Illuminated
Jan 26
Waning Crescent
Jan 30
New
Feb 6
First Quarter
Feb 14
Full
Feb 22
Last Quarter

Hourly Weather History & Observations

Time (CST) Temp. Windchill Dew Point Humidity Pressure Visibility Wind Dir Wind Speed Gust Speed Precip Events Conditions
12:13 AM -2.2 °F - -9.4 °F 71% 29.49 in 10.0 mi Calm Calm - N/A   Overcast
12:34 AM -2.2 °F - -9.4 °F 71% 29.48 in 10.0 mi Calm Calm - N/A   Overcast
12:53 AM -2.2 °F - -9.4 °F 71% 29.46 in 10.0 mi Calm Calm - N/A   Overcast
1:13 AM -2.2 °F - -9.4 °F 71% 29.46 in 10.0 mi Calm Calm - N/A   Overcast
1:34 AM -2.2 °F - -9.4 °F 71% 29.46 in 10.0 mi Calm Calm - N/A Snow Light Snow
1:53 AM -2.2 °F -10.4 °F -9.4 °F 71% 29.43 in 7.0 mi SSE 3.5 mph - N/A Snow Light Snow
2:13 AM -2.2 °F -10.4 °F -9.4 °F 71% 29.44 in 2.5 mi South 3.5 mph - N/A Snow Light Snow
2:33 AM -2.2 °F -12.5 °F -7.6 °F 78% 29.44 in 2.0 mi SSE 4.6 mph - N/A Snow Light Snow
2:53 AM -2.2 °F - -7.6 °F 78% 29.42 in 1.8 mi Calm Calm - N/A Snow Light Snow
3:13 AM -2.2 °F -12.5 °F -7.6 °F 78% 29.40 in 1.8 mi SE 4.6 mph - N/A   Overcast
3:33 AM -2.2 °F -12.5 °F -7.6 °F 78% 29.40 in 2.0 mi SE 4.6 mph - N/A   Overcast
3:54 AM -2.2 °F -12.5 °F -7.6 °F 78% 29.41 in 2.5 mi SSE 4.6 mph - N/A   Overcast
4:13 AM -4.0 °F -12.4 °F -7.6 °F 85% 29.40 in 2.0 mi SE 3.5 mph - N/A Snow Light Snow
4:33 AM -4.0 °F - -7.6 °F 85% 29.40 in 1.5 mi Calm Calm - N/A Snow Light Snow
4:53 AM -4.0 °F - -7.6 °F 85% 29.37 in 1.5 mi Calm Calm - N/A Snow Light Snow
5:13 AM -4.0 °F - -7.6 °F 85% 29.37 in 2.0 mi Calm Calm - N/A   Overcast
5:33 AM -4.0 °F - -7.6 °F 85% 29.37 in 2.0 mi Calm Calm - N/A   Overcast
5:53 AM -4.0 °F - -7.6 °F 85% 29.36 in 4.0 mi Calm Calm - N/A Snow Light Snow
6:14 AM -4.0 °F -12.4 °F -9.4 °F 78% 29.37 in 1.5 mi NE 3.5 mph - N/A Snow Light Snow
6:33 AM -4.0 °F - -9.4 °F 78% 29.37 in 1.8 mi Calm Calm - N/A Snow Light Snow
6:53 AM -4.0 °F - -9.4 °F 78% 29.36 in 2.5 mi Calm Calm - N/A Snow Light Snow
7:14 AM -4.0 °F - -9.4 °F 78% 29.36 in 1.8 mi Calm Calm - N/A Snow Light Snow
7:33 AM -4.0 °F -12.4 °F -9.4 °F 78% 29.37 in 2.0 mi NNE 3.5 mph - N/A Snow Light Snow
7:53 AM -4.0 °F -12.4 °F -9.4 °F 78% 29.36 in 1.5 mi NNE 3.5 mph - N/A Snow Light Snow
8:14 AM -4.0 °F -17.8 °F -9.4 °F 78% 29.37 in 1.0 mi North 6.9 mph - N/A Snow Light Snow
8:33 AM -5.8 °F -22.4 °F -9.4 °F 84% 29.37 in 1.2 mi NNE 9.2 mph - N/A Snow Light Snow
8:53 AM -5.8 °F -24.4 °F -9.4 °F 84% 29.39 in 1.5 mi North 11.5 mph - N/A Snow Light Snow
9:14 AM -5.8 °F -24.4 °F -9.4 °F 84% 29.40 in 1.8 mi North 11.5 mph - N/A Snow Light Snow
9:33 AM -5.8 °F -23.4 °F -9.4 °F 84% 29.41 in 3.0 mi North 10.4 mph - N/A   Haze
9:53 AM -5.8 °F -23.4 °F -9.4 °F 84% 29.43 in 3.0 mi North 10.4 mph - N/A   Haze
10:14 AM -4.0 °F -24.5 °F -9.4 °F 78% 29.44 in 3.0 mi North 15.0 mph - N/A   Haze
10:33 AM -4.0 °F -25.2 °F -9.4 °F 78% 29.46 in 4.0 mi NNW 16.1 mph - N/A   Haze
10:53 AM -5.8 °F -28.2 °F -9.4 °F 84% 29.48 in 2.5 mi NNW 17.3 mph - N/A   Haze
11:14 AM -5.8 °F -27.5 °F -11.2 °F 77% 29.50 in 2.5 mi North 16.1 mph 21.9 mph N/A   Haze
11:33 AM -4.0 °F -26.4 °F -11.2 °F 71% 29.51 in 2.5 mi North 18.4 mph 23.0 mph N/A   Haze
11:53 AM -4.0 °F -26.4 °F -11.2 °F 71% 29.52 in 4.0 mi North 18.4 mph 24.2 mph N/A   Haze
12:14 PM -4.0 °F -27.6 °F -11.2 °F 71% 29.55 in 2.5 mi NNW 20.7 mph 27.6 mph N/A   Haze
12:33 PM -4.0 °F -26.4 °F -11.2 °F 71% 29.56 in 2.0 mi North 18.4 mph 32.2 mph N/A   Haze
12:53 PM -2.2 °F -25.2 °F -9.4 °F 71% 29.58 in 1.5 mi North 20.7 mph 26.5 mph N/A   Haze
1:14 PM -2.2 °F -24.7 °F -9.4 °F 71% 29.59 in 3.0 mi NNW 19.6 mph 26.5 mph N/A   Haze
1:33 PM -2.2 °F -25.7 °F -9.4 °F 71% 29.60 in 1.2 mi NNW 21.9 mph 28.8 mph N/A   Haze
1:53 PM -2.2 °F -27.6 °F -9.4 °F 71% 29.63 in 1.0 mi NNW 26.5 mph 31.1 mph N/A   Haze
2:14 PM -4.0 °F -30.0 °F -9.4 °F 78% 29.65 in 0.8 mi NNW 26.5 mph 32.2 mph N/A   Haze
2:33 PM -4.0 °F -30.9 °F -9.4 °F 78% 29.66 in 1.0 mi NNW 28.8 mph - N/A   Haze
2:53 PM -2.2 °F -28.4 °F -9.4 °F 71% 29.68 in 0.5 mi NNW 28.8 mph 38.0 mph N/A Snow Light Snow
3:14 PM -4.0 °F -30.4 °F -9.4 °F 78% 29.70 in 0.5 mi NNW 27.6 mph 35.7 mph N/A Snow Light Snow
3:33 PM -4.0 °F -28.6 °F -11.2 °F 71% 29.72 in 1.2 mi NNW 23.0 mph - N/A   Haze
3:54 PM -4.0 °F -30.0 °F -9.4 °F 78% 29.73 in 1.0 mi NW 26.5 mph - N/A Snow Light Snow
4:13 PM -5.8 °F -31.5 °F -9.4 °F 84% 29.75 in 0.2 mi NW 24.2 mph 34.5 mph N/A Snow Light Snow
4:33 PM -7.6 °F -36.1 °F -11.2 °F 84% 29.78 in 0.2 mi NW 29.9 mph 38.0 mph N/A Snow Snow
4:54 PM -7.6 °F -35.7 °F -13.0 °F 77% 29.80 in 0.2 mi NW 28.8 mph 34.5 mph N/A Snow Snow
5:13 PM -9.4 °F -37.7 °F -14.8 °F 77% 29.82 in 0.5 mi NW 27.6 mph 34.5 mph N/A Snow Light Snow
5:33 PM -9.4 °F -37.3 °F -16.6 °F 71% 29.84 in 1.0 mi NW 26.5 mph 33.4 mph N/A Snow Light Snow
5:54 PM -11.2 °F -40.1 °F -18.4 °F 70% 29.86 in 1.0 mi NW 27.6 mph 31.1 mph N/A Snow Light Snow
6:13 PM -13.0 °F -43.0 °F -18.4 °F 77% 29.88 in 0.8 mi NW 28.8 mph 38.0 mph N/A Snow Snow
6:33 PM -14.8 °F -45.5 °F -20.2 °F 77% 29.90 in 1.0 mi NW 28.8 mph 33.4 mph N/A Snow Light Snow
6:54 PM -14.8 °F -46.8 °F -20.2 °F 77% 29.92 in 1.0 mi NW 32.2 mph 36.8 mph N/A Snow Light Snow
7:13 PM -16.6 °F -46.9 °F -22.0 °F 76% 29.93 in 1.5 mi NW 26.5 mph 33.4 mph N/A Snow Light Snow
7:33 PM -16.6 °F -46.4 °F -23.8 °F 70% 29.94 in 2.0 mi NW 25.3 mph 31.1 mph N/A   Haze
7:54 PM -16.6 °F -48.8 °F -23.8 °F 70% 29.96 in 1.5 mi NW 31.1 mph - N/A Snow Light Snow
8:13 PM -18.4 °F -49.4 °F -23.8 °F 76% 29.97 in 1.5 mi NW 26.5 mph - N/A Snow Light Snow
8:34 PM -18.4 °F -48.3 °F -25.6 °F 70% 29.98 in 2.5 mi NW 24.2 mph 31.1 mph N/A   Haze
8:53 PM -18.4 °F -48.3 °F -25.6 °F 70% 30.00 in 3.0 mi NW 24.2 mph - N/A   Haze
9:13 PM -18.4 °F -47.1 °F -25.6 °F 70% 30.01 in 5.0 mi NW 21.9 mph 27.6 mph N/A   Clear
9:34 PM -18.4 °F -46.5 °F -25.6 °F 70% 30.02 in 7.0 mi NW 20.7 mph - N/A   Clear
9:53 PM -18.4 °F -45.9 °F -25.6 °F 70% 30.02 in 7.0 mi NW 19.6 mph 24.2 mph N/A   Clear
10:13 PM -18.4 °F -45.2 °F -25.6 °F 70% 30.03 in 10.0 mi NW 18.4 mph - N/A   Clear
10:34 PM -18.4 °F -45.2 °F -25.6 °F 70% 30.04 in 10.0 mi NW 18.4 mph - N/A   Clear
10:53 PM -18.4 °F -44.5 °F -25.6 °F 70% 30.05 in 10.0 mi NW 17.3 mph - N/A   Clear
11:13 PM -18.4 °F -44.5 °F -25.6 °F 70% 30.06 in 10.0 mi NW 17.3 mph - N/A   Clear
11:34 PM -18.4 °F -42.9 °F -27.4 °F 63% 30.07 in 10.0 mi NW 15.0 mph - N/A   Clear
11:53 PM -20.2 °F -46.8 °F -27.4 °F 69% 30.08 in 10.0 mi NW 17.3 mph - N/A   Clear